Weather History for Salina, KS

Change the Weather History Date:

Friday, February 22, 2013

  Actual Average Record
Temperature  
Mean Temperature 16 °F 38 °F  
Max Temperature 25 °F 49 °F 76 °F (1982)
Min Temperature 6 °F 27 °F 3 °F (1911)
Degree Days  
Heating Degree Days 49 27  
Month to date heating degree days 643 668  
Since 1 July heating degree days 3408 3684  
Cooling Degree Days 0 0  
Month to date cooling degree days 0 0  
Year to date cooling degree days 0 0  
Moisture  
Dew Point 9 °F    
Average Humidity 75    
Maximum Humidity 88    
Minimum Humidity 62    
Precipitation  
Precipitation 0.00 in 0.04 in 0.97 in (2000)
Month to date precipitation 1.18 0.88  
Year to date precipitation 2.06 1.51  
Sea Level Pressure  
Sea Level Pressure 30.07 in    
Wind  
Wind Speed 10 mph (West)    
Max Wind Speed 20 mph    
Max Gust Speed 23 mph    
Visibility 10 miles    
Events      
T = Trace of Precipitation, MM = Missing Value Source: NWS Daily Summary

Daily Weather History Graph

Daily Weather History Graph

Search for Another Location

Airport:

Trip Planner

Search our weather history database for the weather conditions in past years. The results will help you decide how hot, cold, wet, or windy it might be!

Date:

Astronomy

Feb. 22, 2013 Rise Set
Actual Time 7:12 AM CST 6:16 PM CST
Civil Twilight 6:45 AM CST 6:43 PM CST
Nautical Twilight 6:14 AM CST 7:14 PM CST
Astronomical Twilight 5:43 AM CST 7:45 PM CST
Moon 3:30 PM CST (2/22) 4:57 AM CST (2/22)
Length of Visible Light 11h 57m
Length of Day
11h 03m
Waxing Gibbous, 90% of the Moon is Illuminated
Feb 22
Waxing Gibbous
Feb 25
Full
Mar 4
Last Quarter
Mar 11
New
Mar 19
First Quarter

Hourly Weather History & Observations

Time (CST) Temp. Windchill Dew Point Humidity Pressure Visibility Wind Dir Wind Speed Gust Speed Precip Events Conditions
12:18 AM 15.8 °F 2.7 °F 12.2 °F 86% 29.89 in 9.0 mi West 11.5 mph - N/A   Mostly Cloudy
12:53 AM 16.0 °F 1.1 °F 12.0 °F 84% 29.96 in 10.0 mi WNW 15.0 mph - N/A   Mostly Cloudy
1:02 AM 15.8 °F 0.9 °F 10.4 °F 79% 29.91 in 7.0 mi WNW 15.0 mph - N/A   Scattered Clouds
1:53 AM 12.0 °F -2.0 °F 8.1 °F 84% 29.97 in 10.0 mi WNW 11.5 mph - N/A   Clear
2:53 AM 12.0 °F -2.7 °F 7.0 °F 80% 29.99 in 10.0 mi West 12.7 mph - N/A   Clear
3:31 AM 14.0 °F -2.0 °F 8.6 °F 79% 29.95 in 7.0 mi West 16.1 mph - N/A   Mostly Cloudy
3:46 AM 14.0 °F -2.0 °F 8.6 °F 79% 29.95 in 9.0 mi West 16.1 mph - N/A   Scattered Clouds
3:53 AM 15.1 °F -1.6 °F 10.0 °F 80% 30.00 in 10.0 mi WNW 18.4 mph - N/A   Partly Cloudy
4:53 AM 12.9 °F -2.8 °F 8.1 °F 81% 30.01 in 9.0 mi WNW 15.0 mph - N/A   Clear
5:53 AM 12.9 °F -3.4 °F 7.0 °F 77% 30.02 in 10.0 mi NW 16.1 mph - N/A   Clear
6:53 AM 10.9 °F -4.7 °F 6.1 °F 81% 30.05 in 10.0 mi WNW 13.8 mph - N/A   Clear
7:53 AM 10.0 °F -5.9 °F 5.0 °F 80% 30.07 in 10.0 mi NW 13.8 mph - N/A   Clear
8:53 AM 12.9 °F -2.2 °F 7.0 °F 77% 30.11 in 10.0 mi WNW 13.8 mph - N/A   Clear
9:53 AM 16.0 °F 2.3 °F 9.0 °F 74% 30.12 in 10.0 mi WNW 12.7 mph - N/A   Clear
10:53 AM 19.0 °F 9.0 °F 10.9 °F 71% 30.15 in 10.0 mi WNW 8.1 mph - N/A   Clear
11:53 AM 21.0 °F 9.3 °F 12.0 °F 68% 30.15 in 10.0 mi NW 11.5 mph - N/A   Clear
12:53 PM 21.9 °F 11.0 °F 12.9 °F 68% 30.15 in 10.0 mi WNW 10.4 mph - N/A   Clear
1:53 PM 23.0 °F 12.4 °F 14.0 °F 68% 30.15 in 10.0 mi WNW 10.4 mph - N/A   Clear
2:53 PM 23.0 °F 13.9 °F 14.0 °F 68% 30.14 in 10.0 mi WNW 8.1 mph - N/A   Clear
3:53 PM 24.1 °F 14.4 °F 14.0 °F 65% 30.12 in 10.0 mi WNW 9.2 mph - 0.02 in   Clear
4:53 PM 23.0 °F 15.8 °F 12.9 °F 65% 30.12 in 10.0 mi WNW 5.8 mph - 0.01 in   Clear
5:53 PM 21.0 °F 14.6 °F 12.0 °F 68% 30.13 in 10.0 mi WSW 4.6 mph - N/A   Clear
6:53 PM 18.0 °F 11.1 °F 10.9 °F 74% 30.14 in 10.0 mi SW 4.6 mph - N/A   Clear
7:53 PM 14.0 °F 5.1 °F 9.0 °F 80% 30.16 in 10.0 mi West 5.8 mph - N/A   Clear
8:53 PM 12.0 °F 4.1 °F 7.0 °F 80% 30.16 in 10.0 mi SW 4.6 mph - N/A   Clear
9:53 PM 14.0 °F 1.2 °F 8.1 °F 77% 30.16 in 10.0 mi WSW 10.4 mph - N/A   Clear
10:53 PM 7.0 °F 0.1 °F 3.9 °F 87% 30.15 in 9.0 mi SE 3.5 mph - N/A   Clear
11:53 PM 8.1 °F 1.4 °F 3.9 °F 83% 30.14 in 8.0 mi South 3.5 mph - N/A   Clear